Weather in Shatunovo

Russia / Altai Krai     53°53′59″N   84°31′48″E
temp.,
°C
wind,
m/s
gust,
m/s
humid.,
%
clouds,
%
prec.,
mm/h
press.,
hPa
HPBL,
m
29 june, wed
wed2901:00+12sse2283100 0.0 100817
04:00+11se24895 0.0 100757
07:00+13se25803 0.0 1007147
10:00+19sse46620 0.0 1005666
13:00+22se68532 0.0 10021216
16:00+24sse6956100 0.0 9991197
19:00+23se51168100 0.0 996499
22:00+18nw3485100 0.8 99679
30 june, thu
thu3001:00+16s349195 1.3 99482
04:00+13w6109423 0.9 998528
07:00+11wsw510941 1.0 1001626
10:00+14sw69600 0.0 10021204
13:00+17sw6104739 0.0 10021913
16:00+19sw69445 0.0 10012058
19:00+19wsw37571 0.0 10011620
22:00+13sw22715 0.0 100211
1 july, fri
fri101:00+10ssw11766 0.0 100310
04:00+8wsw11760 0.0 100310
07:00+11sw25740 0.0 1004151
10:00+16wsw58562 0.0 10051137
13:00+19wsw7104611 0.0 10052078
16:00+18w7115411 0.0 10061555
19:00+17w586770 0.1 10061432
22:00+13wsw358291 0.1 1008166
2 july, sat
sat201:00+12sw388255 0.1 1009199
04:00+11sw268318 0.0 1008156
07:00+12sw388294 0.0 1009275
10:00+14wsw367494 0.0 1010486
13:00+15w347397 0.2 1010616
16:00+18wsw3465100 0.9 10091047
19:00+18w346484 0.9 1009841
22:00+12w22885 0.0 100911
3 july, sun
sun301:00+10wsw01905 0.0 101010
04:00+10ssw009294 0.0 101010
07:00+12ssw118810 0.1 101082
10:00+17sw23735 0.3 1009514
13:00+20w26516 1.3 10081816
16:00+20w125597 0.0 1007674
19:00+20ene115736 0.0 1006434
22:00+14e227220 0.0 100613